Doylestown, PA

8:46 PM EST on January 16, 2017 (GMT -0500)
Doylestown

Weather History for KDYL - November, 2012

Change the Weather History Date:

Thursday, November 8, 2012

  Actual Average (KTTN) Record (KTTN)
Temperature  
Mean Temperature 42 °F -  
Max Temperature 48 °F 53 °F 76 °F (1975)
Min Temperature 35 °F 35 °F 22 °F (1993)
Degree Days  
Heating Degree Days 24    
Moisture  
Dew Point 21 °F    
Average Humidity 48    
Maximum Humidity 67    
Minimum Humidity 29    
Precipitation  
Precipitation 0.10 in - - ()
Sea Level Pressure  
Sea Level Pressure 29.87 in    
Wind  
Wind Speed 11 mph (NNW)    
Max Wind Speed 18 mph    
Max Gust Speed 29 mph    
Visibility 10 miles    
Events      
Averages and records for this station are not official NWS values.
T = Trace of Precipitation, MM = Missing Value Source: NWS Daily Summary

Daily Weather History Graph

Daily Weather History Graph

Search for Another Location

Airport or City:

Trip Planner

Search our weather history database for the weather conditions in past years. The results will help you decide how hot, cold, wet, or windy it might be!

Date:

Astronomy

Nov. 08, 2012 Rise Set
Actual Time 6:38 AM EST 4:49 PM EST
Civil Twilight 6:10 AM EST 5:17 PM EST
Nautical Twilight 5:37 AM EST 5:50 PM EST
Astronomical Twilight 5:05 AM EST 6:22 PM EST
Moon 12:30 AM EST (11/8) 1:29 PM EST (11/8)
Length of Visible Light 11h 07m
Length of Day
10h 10m
Waning Crescent, 33% of the Moon is Illuminated
Nov 8
Waning Crescent
Nov 13
New
Nov 20
First Quarter
Nov 28
Full
Dec 6
Last Quarter

Hourly Weather History & Observations

Time (EST) Temp. Windchill Dew Point Humidity Pressure Visibility Wind Dir Wind Speed Gust Speed Precip Events Conditions
12:54 AM 36.0 °F 28.0 °F 26.1 °F 67% 29.82 in 10.0 mi North 11.5 mph - 0.03 in   Overcast
1:54 AM 36.0 °F 29.6 °F 26.1 °F 67% 29.82 in 10.0 mi NNW 8.1 mph 17.3 mph 0.05 in   Overcast
2:54 AM 37.0 °F 29.3 °F 25.0 °F 62% 29.80 in 10.0 mi NW 11.5 mph - 0.02 in   Overcast
3:54 AM 37.0 °F 29.3 °F 23.0 °F 57% 29.81 in 10.0 mi NW 11.5 mph 19.6 mph N/A   Overcast
4:54 AM 36.0 °F 31.1 °F 23.0 °F 59% 29.82 in 10.0 mi NW 5.8 mph - N/A   Overcast
5:54 AM 37.0 °F 30.4 °F 21.9 °F 54% 29.81 in 10.0 mi NW 9.2 mph - N/A   Overcast
6:54 AM 37.0 °F 29.3 °F 21.0 °F 52% 29.82 in 10.0 mi NW 11.5 mph - N/A   Overcast
7:54 AM 37.9 °F 30.5 °F 19.9 °F 48% 29.84 in 10.0 mi NNW 11.5 mph 19.6 mph N/A   Mostly Cloudy
8:54 AM 39.0 °F 33.4 °F 21.9 °F 50% 29.85 in 10.0 mi NNW 8.1 mph - N/A   Clear
9:54 AM 41.0 °F 32.8 °F 21.9 °F 47% 29.85 in 10.0 mi NNW 16.1 mph 26.5 mph N/A   Partly Cloudy
10:54 AM 44.1 °F 36.2 °F 19.9 °F 38% 29.85 in 10.0 mi NNW 18.4 mph 28.8 mph N/A   Clear
11:54 AM 45.0 °F 38.5 °F 18.0 °F 34% 29.84 in 10.0 mi NNW 13.8 mph 27.6 mph N/A   Scattered Clouds
12:54 PM 45.0 °F 38.9 °F 18.0 °F 34% 29.83 in 10.0 mi NNW 12.7 mph 24.2 mph N/A   Partly Cloudy
1:54 PM 45.0 °F 37.9 °F 17.1 °F 33% 29.83 in 10.0 mi NNW 16.1 mph 25.3 mph N/A   Scattered Clouds
2:54 PM 48.9 °F - 18.0 °F 29% 29.83 in 10.0 mi NW 13.8 mph 25.3 mph N/A   Clear
3:54 PM 48.0 °F - 17.1 °F 29% 29.83 in 10.0 mi NW 12.7 mph 20.7 mph N/A   Clear
4:54 PM 45.0 °F 39.3 °F 19.9 °F 37% 29.86 in 10.0 mi NW 11.5 mph 19.6 mph N/A   Clear
5:54 PM 43.0 °F 36.4 °F 21.0 °F 42% 29.90 in 10.0 mi NW 12.7 mph 21.9 mph N/A   Clear
6:54 PM 41.0 °F 35.2 °F 19.9 °F 43% 29.93 in 10.0 mi NNW 9.2 mph 21.9 mph N/A   Clear
7:54 PM 39.0 °F 32.8 °F 21.0 °F 49% 29.94 in 10.0 mi NNW 9.2 mph 17.3 mph N/A   Clear
8:54 PM 37.9 °F 31.5 °F 21.9 °F 53% 29.96 in 10.0 mi NNW 9.2 mph 18.4 mph N/A   Clear
9:54 PM 37.0 °F 29.8 °F 23.0 °F 57% 29.98 in 10.0 mi NNW 10.4 mph 20.7 mph N/A   Clear
10:54 PM 35.1 °F 30.1 °F 23.0 °F 61% 29.99 in 10.0 mi NNW 5.8 mph 16.1 mph N/A   Clear
11:54 PM 35.1 °F 27.9 °F 21.9 °F 59% 29.99 in 10.0 mi NW 9.2 mph 18.4 mph N/A   Clear